Location: Le Hiès Ruisseau
(43.3000°N, 0.4500°W)
Time: 07:09:21
(UTC+00:00)

Cosmos 1763 Rocket - Pass Details

Date: 28 January 2023
Orbit: 733 x 778 km, 74.0° (Epoch: 26 March)

Event Time Altitude Azimuth Distance (km) Brightness Sun altitude
Rises 18:59:00 0° 344° (NNW) 3,234 6.9 -20.2°
Reaches altitude 10° 19:01:29 10° 350° (N) 2,297 6.0 -20.7°
Enters shadow 19:06:26 47° 61° (ENE) 986 3.6 -21.6°
